Change the Weather History Date:

Sunday, October 30, 2011

  Actual Average Record
Temperature  
Mean Temperature 47 °F 41 °F  
Max Temperature 67 °F 57 °F 74 °F (2008)
Min Temperature 26 °F 25 °F 0 °F (1991)
Degree Days  
Heating Degree Days 18 24  
Month to date heating degree days 464 559  
Since 1 July heating degree days 549 823  
Cooling Degree Days 0 0  
Month to date cooling degree days 2 0  
Year to date cooling degree days 387 288  
Moisture  
Dew Point 21 °F    
Average Humidity 45    
Maximum Humidity 69    
Minimum Humidity 20    
Precipitation  
Precipitation 0.00 in 0.03 in 0.29 in (2001)
Month to date precipitation 0.85 0.71  
Year to date precipitation 7.73 7.58  
Sea Level Pressure  
Sea Level Pressure 30.22 in    
Wind  
Wind Speed 5 mph (South)    
Max Wind Speed 10 mph    
Max Gust Speed 13 mph    
T = Trace of Precipitation, MM = Missing Value Source: NWS Daily Summary

Daily Weather History Graph

Daily Weather History Graph

Search for Another Location

Airport or City:

Trip Planner

Search our weather history database for the weather conditions in past years. The results will help you decide how hot, cold, wet, or windy it might be!

Date:

Astronomy

Oct. 30, 2011 Rise Set
Actual Time 7:09 AM PDT 5:44 PM PDT
Civil Twilight 6:42 AM PDT 6:12 PM PDT
Nautical Twilight 6:10 AM PDT 6:44 PM PDT
Astronomical Twilight 5:39 AM PDT 7:15 PM PDT
Moon 11:32 AM PDT (10/30) 9:19 PM PDT (10/30)
Length of Visible Light 11h 30m
Length of Day
10h 34m
Waxing Crescent, 21% of the Moon is Illuminated
Oct 30
Waxing Crescent
Nov 2
First Quarter
Nov 10
Full
Nov 18
Last Quarter
Nov 24
New

Hourly Weather History & Observations

Time (PDT) Temp. Windchill Dew Point Humidity Pressure Visibility Wind Dir Wind Speed Gust Speed Precip Events Conditions
12:53 AM 30.0 °F 26.5 °F 16.0 °F 56% 30.24 in - South 3.5 mph - N/A   Unknown
1:53 AM 30.0 °F 24.1 °F 17.1 °F 59% 30.24 in - SSE 5.8 mph - N/A   Unknown
2:53 AM 28.0 °F 24.2 °F 17.1 °F 63% 30.23 in - SSW 3.5 mph - N/A   Unknown
3:53 AM 32.0 °F 23.6 °F 18.0 °F 56% 30.22 in - SSW 10.4 mph - N/A   Unknown
4:53 AM 30.9 °F 26.2 °F 19.0 °F 61% 30.25 in - South 4.6 mph - N/A   Unknown
5:53 AM 28.0 °F 20.0 °F 19.0 °F 69% 30.28 in - South 8.1 mph - N/A   Unknown
6:53 AM 28.0 °F 21.7 °F 18.0 °F 66% 30.31 in - South 5.8 mph - N/A   Unknown
7:53 AM 28.9 °F 22.8 °F 16.0 °F 58% 30.32 in - SW 5.8 mph - N/A   Unknown
8:53 AM 41.0 °F - 21.0 °F 45% 30.31 in - Calm Calm - N/A   Unknown
9:53 AM 50.0 °F - 24.1 °F 36% 30.29 in - Calm Calm - N/A   Unknown
10:53 AM 54.0 °F - 25.0 °F 33% 30.26 in - East 3.5 mph - N/A   Unknown
11:53 AM 59.0 °F - 26.1 °F 28% 30.25 in - NNE 4.6 mph - N/A   Unknown
12:53 PM 61.0 °F - 26.1 °F 26% 30.20 in - Variable 3.5 mph - N/A   Unknown
1:53 PM 64.9 °F - 25.0 °F 22% 30.16 in - Variable 3.5 mph - N/A   Unknown
2:53 PM 64.9 °F - 24.1 °F 21% 30.14 in - Variable 3.5 mph - N/A   Unknown
3:00 PM - - - N/A% - - North - - N/A   Unknown
3:53 PM 66.0 °F - 24.1 °F 20% 30.12 in - ENE 6.9 mph - N/A   Unknown
4:53 PM 64.9 °F - 23.0 °F 20% 30.12 in - East 3.5 mph - N/A   Unknown
5:53 PM 54.0 °F - 21.0 °F 28% 30.16 in - WNW 4.6 mph - N/A   Unknown
6:53 PM 46.0 °F 43.9 °F 21.0 °F 37% 30.21 in - SSE 4.6 mph - N/A   Unknown
7:53 PM 42.1 °F - 19.9 °F 41% 30.22 in - Calm Calm - N/A   Unknown
8:53 PM 39.0 °F 34.0 °F 21.0 °F 49% 30.19 in - South 6.9 mph - N/A   Unknown
9:53 PM 34.0 °F - 17.1 °F 50% 30.18 in - Calm Calm - N/A   Unknown
10:00 PM - - - N/A% - - North - - N/A   Unknown
10:53 PM 35.1 °F 30.1 °F 18.0 °F 50% 30.17 in - SSW 5.8 mph - N/A   Unknown
11:53 PM 33.1 °F 26.9 °F 18.0 °F 54% 30.16 in - South 6.9 mph - N/A   Unknown